Location: Vihti�l�
(61.3833°N, 23.0667°E)
Time: 03:47:39
(UTC+00:00)

Cosmos 2227 Rocket - Pass Details

Date: 29 November 2020
Orbit: 837 x 847 km, 71.0° (Epoch: 19 January)

Event Time Altitude Azimuth Distance (km) Brightness Sun altitude
Exits shadow 02:15:33 47° 44° (NE) 1,113 3.0 -33.1°
Drops below altitude 10° 02:19:30 10° 42° (NE) 2,474 5.3 -32.6°
Sets 02:21:57 0° 43° (NE) 3,414 6.1 -32.3°
